DECAYED

CZ-6A DEB, 61173 (Decayed)

Orbit data source: Space-Track

CZ-6A DEB, 61173 was space debris in LEO originally from a launch on Tue, 06 Aug 2024 UTC launched from the Taiyaun Space Center, China (TSC). Debris objects in space refer to the collection of defunct objects orbiting the Earth. Examples of debris include non-operational satellites, rocket bodies, and fragments generated from explosions, collisions, or faulty payload assembly.

Loading next visibility...
Identifier
61173, 2024-140RT
Orbit
Decayed
Country
Flag of CNCN / PRC
Related business
Manufacturer
SAST
Mission
Decayed spacecraft
Bus & Motor
Unknown
Mass
Unknown
Launch date (UTC)
2024-08-06 (2 years ago)
Launch vehicle
Unknown
Launch site
Taiyaun Space Center, China (TSC)
Object type
Payload
Rocket body
Debris
Shape & HBR
Unknown shape, 0.1 m
Radar Cross Section
Medium (>0.1 m² and <1 m²)

Expand to show TLE details & history
Last TLE update: 5 months ago

TLE from 5 months ago
0 CZ-6A DEB
1 61173U 24140RT  26012.60014205  .04498671  26542-1  12396-1 0  9999
2 61173  89.1225 294.7883 0007781 111.2856 248.9263 15.97432987 76007
Epoch: 2026-01-12T14:24Z
TLE epoch observation values (Epoch: 2026-01-12T14:24:12.273Z)
Latitude
0.00001°
Longitude
-33.35735°
Altitude
286.714 km
Speed
7.734 km/s
True Right ascension
19h 39m 09s
True Declination
0° 00' 00"
Sunlit
Object was in daylight at epoch
Visualization orbit readout
Latitude
Unknown
Longitude
Unknown
Altitude
Unknown
Speed
Unknown
Apparent Right ascension
Unknown
Apparent Declination
Unknown
Sunlit
N/A
Visualization observer readout
Local Sidereal Time
07:24:35
Azimuth
Unknown
Elevation
Unknown
Doppler factor
Unknown
Orbital elements
Apogee altitude
283.424 km
Perigee altitude
273.065 km
Semi-major axis
6,656.382 km
Eccentricity
0.00078
Inclination
89.1225°
RAAN
294.7883°
Arg. of periapsis
111.2856°
True anomaly
248.84313°
Mean anomaly
248.9263°
Eccentric anomaly
248.88471°
Mean motion
3.99656 °/min
Orbital period
90.08 mins
BSTAR
0.012396
Loading maneuver chart data...
Computing Atmospheric mass density...
Loading historical data...
Loading historical data...
Loading historical data...
Loading historical data...
Loading historical data...
Loading historical data...
Loading historical data...

Documentation

Showing up to 5 results
|